This is the latest recevied weather packets stored in our database for station/object DB5WY-13. If no packets are shown the sender has not sent any weather packets the latest 10 day(s).
| Time | Temp. | Humidity | Pressure | Rain* | Wind** | Luminosity | Snow |
|---|---|---|---|---|---|---|---|
| 1777455624 | 15.56° C | 29% | 1025.8 hPa | 0 mm | - | - | - |
| 1777455025 | 15.56° C | 30% | 1026 hPa | 0 mm | - | - | - |
| 1777454425 | 15° C | 30% | 1025.9 hPa | 0 mm | - | - | - |
| 1777453825 | 15° C | 30% | 1025.9 hPa | 0 mm | - | - | - |
| 1777453225 | 13.89° C | 31% | 1025.8 hPa | 0 mm | - | - | - |
| 1777452625 | 13.89° C | 32% | 1025.9 hPa | 0 mm | - | - | - |
| 1777452025 | 13.89° C | 32% | 1025.8 hPa | 0 mm | - | - | - |
| 1777451425 | 13.89° C | 32% | 1026.1 hPa | 0 mm | - | - | - |
| 1777450825 | 13.89° C | 32% | 1025.8 hPa | 0 mm | - | - | - |
| 1777450225 | 13.33° C | 34% | 1025.7 hPa | 0 mm | - | - | - |
| 1777449625 | 12.78° C | 34% | 1025.8 hPa | 0 mm | - | - | - |
| 1777449025 | 12.78° C | 34% | 1025.6 hPa | 0 mm | - | - | - |
| 1777448425 | 12.22° C | 34% | 1025.4 hPa | 0 mm | - | - | - |
| 1777447825 | 11.67° C | 35% | 1025.3 hPa | 0 mm | - | - | - |
| 1777447225 | 11.67° C | 35% | 1025.4 hPa | 0 mm | - | - | - |
| 1777446625 | 11.67° C | 37% | 1025.2 hPa | 0 mm | - | - | - |
| 1777446025 | 11.67° C | 37% | 1025.2 hPa | 0 mm | - | - | - |
| 1777445425 | 11.11° C | 36% | 1025.2 hPa | 0 mm | - | - | - |
| 1777444825 | 10.56° C | 37% | 1025 hPa | 0 mm | - | - | - |
| 1777444225 | 10.56° C | 37% | 1025 hPa | 0 mm | - | - | - |
| 1777443625 | 10.56° C | 37% | 1025 hPa | 0 mm | - | - | - |
| 1777443025 | 10° C | 37% | 1024.9 hPa | 0 mm | - | - | - |
| 1777442425 | 10° C | 38% | 1024.7 hPa | 0 mm | - | - | - |
| 1777441825 | 10° C | 38% | 1024.8 hPa | 0 mm | - | - | - |
| 1777441225 | 9.44° C | 39% | 1024.7 hPa | 0 mm | - | - | - |
* Rain latest hour (hover to see other rain measurements)
** Current wind speed in m/s (hover to see current wind gust speed)